Location: Lavardac
(44.1778°N, 0.2983°E)
Time: 20:55:30
(UTC+00:00)

Cosmos 2369 Rocket - Pass Details

Date: 06 June 2020
Orbit: 830 x 851 km, 71.0° (Epoch: 09 July)

Event Time Altitude Azimuth Distance (km) Brightness Sun altitude
Rises 20:27:31 0° 184° (S) 3,392 5.0 -7.6°
Reaches altitude 10° 20:30:03 10° 177° (S) 2,458 4.2 -8.0°
Maximum altitude 20:35:22 44° 107° (ESE) 1,156 2.6 -8.6°
Drops below altitude 10° 20:40:40 10° 37° (NE) 2,461 4.7 -9.3°
Sets 20:43:12 0° 31° (NNE) 3,396 5.5 -9.6°
